Simultaneous Nadir Overpasses (SNOs) Predictions

Prediction of SNOs between AQUA and METOP-B Satellite Orbit:

Table of predicted SNOs for the next 14.0 days since TLE Epoch: 3/23/2017
Index Date (AQUA) Time (AQUA) Lat,Lon (AQUA) SZA (AQUA ) Date (METOP-B) Time (METOP-B) Lat,Lon (METOP-B) SZA (METOP-B ) Distance(km) Time Diff (sec)
1 03/26/2017 10:59:25 -73.74,-170.39 108.60 03/26/2017 10:58:48 -73.75,-170.37 108.59 1.36 37
2 03/26/2017 11:48:53 73.79, -2.86 71.44 03/26/2017 11:49:27 73.80, -2.94 71.44 2.48 34
3 03/29/2017 06:33:41 -73.74,-103.95 109.71 03/29/2017 06:33:09 -73.76,-103.94 109.68 2.67 32
4 03/29/2017 07:23:09 73.79, 63.57 70.33 03/29/2017 07:23:48 73.80, 63.48 70.34 3.01 39
5 04/01/2017 02:07:58 -73.75, -37.54 110.80 04/01/2017 02:07:31 -73.77, -37.52 110.78 2.65 27
6 04/01/2017 02:57:26 73.80, 129.98 69.25 04/01/2017 02:58:10 73.80, 129.89 69.24 2.83 44
7 04/03/2017 21:42:15 -73.77, 28.85 111.87 04/03/2017 21:41:53 -73.77, 28.90 111.86 1.75 22
8 04/03/2017 22:31:43 73.83,-163.64 68.19 04/03/2017 22:32:31 73.85,-163.59 68.20 2.96 48
9 04/06/2017 16:26:52 73.13, -71.03 66.40 04/06/2017 16:25:46 73.07, -73.62 66.44 84.26 66
10 04/06/2017 17:16:30 -73.75, 95.33 112.97 04/06/2017 17:16:14 -73.78, 95.31 112.93 3.56 16
11 04/06/2017 18:05:59 73.86, -97.29 67.15 04/06/2017 18:06:52 73.85, -97.19 67.13 3.25 53




NCC Satellite Simultaneous Nadir Overpasses (SNOs) Prediction Service
